Hourly Data Report for December 18, 2006

TORONTO CITY
ONTARIO

43°40'00.000" N
79°24'00.000" W
112.50 m
6158355
71508
XTO

Download Data

Hourly Data (December 2006)
Hourly Data Report for December 18, 2006
TIME
LST
Temp Definition
°C
Dew Point Definition
°C
Rel Hum Definition
%
Precip. Amount Definition
mm

Wind Dir Definition
10's deg

Wind Spd Definition
km/h
Visibility Definition
km
Stn Press Definition
kPa
Hmdx Definition


Wind Chill Definition


Weather Definition


00:00 7.5 0.5 61   LegendMM LegendMM   100.45     LegendNANA
01:00 7.0 0.7 64   LegendMM LegendMM   100.39     LegendNANA
02:00 7.1 0.5 63   LegendMM LegendMM   100.41     LegendNANA
03:00 6.9 0.7 65   LegendMM LegendMM   100.41     LegendNANA
04:00 6.8 1.0 66   LegendMM LegendMM   100.44     LegendNANA
05:00 6.0 1.2 71   LegendMM LegendMM   100.49     LegendNANA
06:00 5.4 1.3 75   LegendMM LegendMM   100.54     LegendNANA
07:00 5.1 1.2 76   LegendMM LegendMM   100.61     LegendNANA
08:00 5.0 1.4 78   LegendMM LegendMM   100.68     LegendNANA
09:00 5.1 1.0 75   LegendMM LegendMM   100.77     LegendNANA
10:00 5.3 0.6 72   LegendMM LegendMM   100.85     LegendNANA
11:00 6.0 0.0 65   LegendMM LegendMM   100.86     LegendNANA
12:00 6.1 0.0 65   LegendMM LegendMM   100.87     LegendNANA
13:00 6.6 0.5 65   LegendMM LegendMM   100.87     LegendNANA
14:00 5.8 -1.8 58   LegendMM LegendMM   100.93     LegendNANA
15:00 5.6 -2.8 55   LegendMM LegendMM   101.00     LegendNANA
16:00 5.1 -2.6 57   LegendMM LegendMM   101.07     LegendNANA
17:00 4.4 -1.8 64   LegendMM LegendMM   101.16     LegendNANA
18:00 4.2 -2.5 62   LegendMM LegendMM   101.23     LegendNANA
19:00 3.9 -2.7 62   LegendMM LegendMM   101.30     LegendNANA
20:00 3.2 -4.6 57   LegendMM LegendMM   101.34     LegendNANA
21:00 3.4 -4.1 58   LegendMM LegendMM   101.34     LegendNANA
22:00 3.3 -4.1 58   LegendMM LegendMM   101.34     LegendNANA
23:00 3.2 -4.1 59   LegendMM LegendMM   101.32     LegendNANA

Notes on Data Quality.

Legend

  • E = Estimated
  • M = Missing
  • NA = Not Available*
  • [empty] = Indicates an unobserved value
Date modified: